Location: Bonneuil
(46.1010°N, 2.9693°E)
Time: 22:47:17
(UTC+00:00)

N. Korean satellite - Visible Passes

Search period start: 26 February 2021 00:00
Search period end: 08 March 2021 00:00
Orbit: 451 x 503 km, 97.2° (Epoch: 26 February)

Date Brightness Start Highest point End Pass type
(mag) Time Alt. Az. Time Alt. Az. Time Alt. Az.
26 Feb 9.1 04:33:13 10° NE 04:36:01 22° E 04:38:49 10° SSE visible
27 Feb 10.0 04:08:04 10° ENE 04:09:05 11° E 04:10:05 10° ESE visible
27 Feb 6.6 05:39:16 10° N 05:42:41 52° WNW 05:46:08 10° SSW visible
28 Feb 6.8 05:12:29 10° NNE 05:15:59 70° ESE 05:19:31 10° S visible
01 Mar 8.5 04:46:00 10° NNE 04:49:11 31° E 04:52:23 10° SSE visible
02 Mar 9.7 04:20:03 10° NE 04:22:17 16° E 04:24:32 10° SE visible
02 Mar 7.1 05:52:28 10° N 05:55:43 36° WNW 05:59:00 10° SW visible
03 Mar 6.4 05:25:30 10° N 05:29:03 79° WNW 05:32:37 10° SSW visible
04 Mar 7.7 04:58:50 10° NNE 05:02:16 46° E 05:05:44 10° S visible
05 Mar 9.2 04:32:33 10° NE 04:35:24 22° E 04:38:16 10° SSE visible
06 Mar 10.0 04:07:16 10° ENE 04:08:25 11° E 04:09:35 10° ESE visible
06 Mar 6.7 05:38:33 10° N 05:42:02 53° WNW 05:45:32 10° SSW visible
07 Mar 6.9 05:11:43 10° NNE 05:15:17 69° ESE 05:18:53 10° S visible
